Regional Weather Roundup
Issued by NWS

Home | Current Version | Previous Version | Graphics & Text | Print | Product List | Glossary On
Versions: 1 2 3 4 5 6 7 8 9 10 11 12 13 14 15 16 17 18 19 20 21 22 23 24 25 26 27 28 29 30 31 32 33 34 35 36 37 38 39 40 41 42 43 44 45 46 47 48 49 50
582
ASUS43 KLOT 222102
RWRIL

ILLINOIS REGIONAL WEATHER ROUNDUP
NATIONAL WEATHER SERVICE CHICAGO/ROMEOVILLE IL
400 PM CDT WED MAR 22 2017

NOTE: "FAIR" INDICATES FEW OR NO CLOUDS BELOW 12,000 FEET WITH NO
SIGNIFICANT WEATHER AND/OR OBSTRUCTIONS TO VISIBILITY.

* THESE STATIONS ARE NOT UNDER NWS QUALITY CONTROL. THEY ALSO MAY NOT
  REPORT WEATHER SUCH AS PRECIPITATION OR FOG.

ILZ001-002-007-009-015-016-024-222200-
NORTHWEST ILLINOIS

CITY           SKY/WX    TMP DP  RH WIND       PRES   REMARKS
MOLINE         SUNNY     43  17  35 SE10      30.46F
STERLING*      SUNNY     42  20  41 E7        30.48F
SAVANNA*       SUNNY     44  15  31 E10G17    30.48F
$$

ILZ003-004-008-010-011-017-018-222200-
NORTH CENTRAL ILLINOIS

CITY           SKY/WX    TMP DP  RH WIND       PRES   REMARKS
ROCKFORD       PTSUNNY   41  16  36 SE13G18   30.51F
FREEPORT*      SUNNY     40  15  36 SE9       30.50F
ROCHELLE*      SUNNY     40  19  42 SE9       30.49F
DE KALB*       SUNNY     39  19  44 E9        30.50F WCI  33
PERU*          SUNNY     40  18  40 SE8       30.49F
$$

ILZ005-006-012>014-019>023-222200-
NORTHEAST ILLINOIS

CITY           SKY/WX    TMP DP  RH WIND       PRES   REMARKS
CHICAGO-OHARE  MOSUNNY   36  18  48 E12G17    30.53F WCI  28
CHICAGO-MIDWAY MOSUNNY   33  16  49 VRB5      30.55F WCI  29
AURORA         SUNNY     41  17  38 NE8       30.51F
LANSING*       SUNNY     34  21  59 NE7       30.54F WCI  28
JOLIET*        SUNNY     38  19  44 E7        30.52F WCI  33
WAUKEGAN       SUNNY     30  19  63 E10       30.54F WCI  21
DUPAGE AIRPORT SUNNY     38  19  46 E13       30.51F WCI  30
KANKAKEE*      SUNNY     40  16  37 E6        30.51F
WHEELING       SUNNY     32  19  58 VRB7      30.56F WCI  26
MORRIS*        SUNNY     39  18  42 E10       30.50F WCI  33
NORTHERLY ISL    N/A     31  20  63 NE7         N/A  WCI  24
$$

LMZ740>746-222200-
SOUTHERN LAKE MICHIGAN

STATION/POSITION SKY/WX   TEMP    WIND        PRES    VSBY  WAVE
                          AIR SEA DIR/SP/G                  HT/PER
                          (F)     (DEG/KT/KT) (MB)    (MI)  (FT/S)
HARRISON CRIB              28      30/  9/ 10   N/A
BURNHAM HARBOR             30      30/  8/ 11   N/A
CALUMET HARBOR             29      20/ 10/ 13 1034.0F
BURNS HARBOR               29      30/  8/ 13 1034.9F
MICHIGAN CITY              28      10/ 11/ 12   N/A
$$

ILZ025>027-034>036-040-047-049-050-058-095>099-222200-
WEST-CENTRAL ILLINOIS

CITY           SKY/WX    TMP DP  RH WIND       PRES   REMARKS
QUINCY         MOSUNNY   48  15  26 E13G20    30.39F
GALESBURG*     SUNNY     43  22  42 E12       30.44F
MACOMB*        MOSUNNY   46  16  30 E9G16     30.46F
JACKSONVILLE*  SUNNY     47  12  24 E15       30.42F
PITTSFIELD*    SUNNY     49  13  23 E9        30.41F
$$

ILZ028>032-037-038-041>044-048-051>054-059>061-222200-
CENTRAL ILLINOIS

CITY           SKY/WX    TMP DP  RH WIND       PRES   REMARKS
PONTIAC        SUNNY     40  21  46 NE8       30.50F
BLOOMINGTON    SUNNY     41  16  36 E13G22    30.47F
DECATUR        SUNNY     45  12  26 NE14G22   30.44F
PEORIA         SUNNY     43  21  41 NE12G22   30.47F
LACON*         SUNNY     41  24  51 SE9       30.48F
LINCOLN*       SUNNY     44  17  33 E12G17    30.46F
SPRINGFIELD    SUNNY     48  12  23 E10G17    30.45F
TAYLORVILLE    SUNNY     46  11  24 NE10G18   30.43S
$$

ILZ033-039-045-046-055>057-062-063-222200-
EAST-CENTRAL ILLINOIS

CITY           SKY/WX    TMP DP  RH WIND       PRES   REMARKS
CHAMPAIGN      SUNNY     44  17  33 NE15      30.46F
RANTOUL*       SUNNY     42  22  45 E13G21    30.47F
MATTOON        SUNNY     46  16  30 NE16      30.42F
$$

ILZ079-100>102-222200-
SOUTHWEST ILLINOIS

CITY           SKY/WX    TMP DP  RH WIND       PRES   REMARKS
ALTON          MOSUNNY   48  16  27 NE13      30.41F
BELLEVILLE     MOSUNNY   51  18  27 E12       30.39S
CAHOKIA*       SUNNY     51  17  26 E13       30.39F
SPARTA*        SUNNY     51  22  32 E9        30.38F
$$

ILZ064>066-069>071-074>076-080>082-084>086-088>090-092>094-222200-
SOUTH-CENTRAL ILLINOIS

CITY           SKY/WX    TMP DP  RH WIND       PRES   REMARKS
CARBONDALE     SUNNY     51  23  33 NE9G18    30.37F
CAIRO*         SUNNY     55  26  32 NE10G20   30.33S
EFFINGHAM*     SUNNY    N/A N/A N/A N6        30.43F
MARION         MOSUNNY   57  21  24 NE14      30.37F
MT. VERNON     SUNNY     50  22  33 NE15      30.39F
CENTRALIA*     SUNNY     49  22  34 NE12      30.39F
SALEM*         SUNNY     49  17  28 E8        30.40F
METROPOLIS*    MOSUNNY   55  22  28 E9        30.34S
$$

ILZ067-068-072-073-078-083-087-091-222200-
SOUTHEAST ILLINOIS

CITY           SKY/WX    TMP DP  RH WIND       PRES   REMARKS
LAWRENCEVILLE  LGT RAIN  50  15  24 NE14G21   30.41F
FLORA*         SUNNY     49  19  30 NE13      30.41F
FAIRFIELD*     SUNNY     49  22  33 NE9       30.39S
HARRISBURG*    SUNNY     51  27  38 NE12      30.38S
ROBINSON*      SUNNY     47  15  27 E13       30.43S
CARMI*         SUNNY     51  21  31 NE12G20   30.38S
$$

ABBREVIATIONS USED IN REMARKS
   TC - TEMPERATURE IN CELSIUS
  WCI - WIND CHILL INDEX
   HX - HEAT INDEX
  VSB - VISIBILITY
$$





USA.gov is the U.S. government's official web portal to all federal, state and local government web resources and services.